Weather History for Villahermosa Airport, Mexico

Change the Weather History Date:

Saturday, October 27, 2012

  Actual Average Record
Temperature  
Mean Temperature 79 °F -  
Max Temperature 87 °F 85 °F 93 °F (1996)
Min Temperature 71 °F 72 °F 66 °F (1999)
Cooling Degree Days 14    
Growing Degree Days 29 (Base 50)    
Moisture  
Dew Point 70 °F    
Average Humidity 77    
Maximum Humidity 94    
Minimum Humidity 55    
Precipitation  
Precipitation 0.00 in - - ()
Sea Level Pressure  
Sea Level Pressure 29.92 in    
Wind  
Wind Speed 1 mph ()    
Max Wind Speed 9 mph    
Max Gust Speed -    
Visibility 6.7 miles    
Events      
Averages and records for this station are not official NWS values.
T = Trace of Precipitation, MM = Missing Value Source: Averaged Metar Reports

Daily Weather History Graph

Daily Weather History Graph

Search for Another Location

Airport:

Trip Planner

Search our weather history database for the weather conditions in past years. The results will help you decide how hot, cold, wet, or windy it might be!

Date:

Astronomy

Oct. 27, 2012 Rise Set
Actual Time 7:08 AM CDT 6:41 PM CDT
Civil Twilight 6:46 AM CDT 7:03 PM CDT
Nautical Twilight 6:20 AM CDT 7:29 PM CDT
Astronomical Twilight 5:55 AM CDT 7:54 PM CDT
Moon 5:18 PM CDT (10/27) 5:16 AM CDT (10/27)
Length of Visible Light 12h 17m
Length of Day
11h 32m
Waxing Gibbous, 96% of the Moon is Illuminated
Oct 27
Waxing Gibbous
Oct 29
Full
Nov 6
Last Quarter
Nov 13
New
Nov 20
First Quarter

Hourly Weather History & Observations

Time (CDT) Temp. Heat Index Dew Point Humidity Pressure Visibility Wind Dir Wind Speed Gust Speed Precip Events Conditions
5:24 AM 71.6 °F - 69.8 °F 94% 29.94 in 5.0 mi Calm Calm - N/A   Clear
5:55 AM 71.6 °F - 69.8 °F 94% 29.94 in 5.0 mi Calm Calm - N/A   Partly Cloudy
6:41 AM 71.6 °F - 69.8 °F 94% 29.99 in 6.0 mi Calm Calm - N/A   Scattered Clouds
7:50 AM 71.6 °F - 69.8 °F 94% 29.94 in 7.0 mi Calm Calm - N/A   Scattered Clouds
8:40 AM 73.4 °F - 69.8 °F 88% 29.97 in 7.0 mi Calm Calm - N/A   Mostly Cloudy
9:48 AM 77.0 °F - 69.8 °F 78% 30.02 in 7.0 mi SW 4.6 mph - N/A   Scattered Clouds
10:43 AM 80.6 °F 84.6 °F 71.6 °F 74% 29.99 in 7.0 mi SW 4.6 mph - N/A   Scattered Clouds
11:43 AM 86.0 °F 91.8 °F 71.6 °F 62% 29.97 in 7.0 mi Calm Calm - N/A   Mostly Cloudy
12:42 PM 86.0 °F 89.4 °F 68.0 °F 55% 29.99 in 7.0 mi Calm Calm - N/A   Scattered Clouds
1:40 PM 87.8 °F 93.8 °F 71.6 °F 58% 29.90 in 7.0 mi Calm Calm - N/A   Mostly Cloudy
2:40 PM 86.0 °F 89.4 °F 68.0 °F 55% 29.84 in 7.0 mi NNE 3.5 mph - N/A   Mostly Cloudy
3:40 PM 82.4 °F 87.2 °F 71.6 °F 70% 29.88 in 7.0 mi North 9.2 mph - N/A   Mostly Cloudy
4:40 PM 84.2 °F 88.4 °F 69.8 °F 62% 29.82 in 7.0 mi Calm Calm - N/A   Mostly Cloudy
5:40 PM 84.2 °F 88.4 °F 69.8 °F 62% 29.82 in 7.0 mi Calm Calm - N/A   Scattered Clouds
6:40 PM 80.6 °F 83.9 °F 69.8 °F 70% 29.88 in 7.0 mi NNW 4.6 mph - N/A   Scattered Clouds
7:40 PM 78.8 °F - 71.6 °F 78% 29.87 in 7.0 mi NNW 8.1 mph - N/A   Scattered Clouds
8:41 PM 77.0 °F - 71.6 °F 83% 29.89 in 7.0 mi North 5.8 mph - N/A   Partly Cloudy
9:40 PM 75.2 °F - 71.6 °F 89% 29.96 in 7.0 mi Calm Calm - N/A   Clear
10:40 PM 75.2 °F - 71.6 °F 89% 29.92 in 7.0 mi Calm Calm - N/A   Clear
11:40 PM 75.2 °F - 71.6 °F 89% 29.92 in 7.0 mi Calm Calm - N/A   Clear